Location: Unspecified
(0.0000°N, 0.0000°E)
Time: 20:57:57
(UTC+00:00)

Explorer 7 - Visible Passes

Search period start: 16 September 2019 00:00
Search period end: 26 September 2019 00:00
Orbit: 485 x 680 km, 50.3° (Epoch: 16 September)

Date Brightness Start Highest point End Pass type
(mag) Time Alt. Az. Time Alt. Az. Time Alt. Az.
19 Sep 8.4 18:59:34 10° S 19:01:29 18° SSE 19:01:29 18° SSE visible
20 Sep 7.0 19:03:45 10° SSW 19:07:27 44° SE 19:07:40 44° ESE visible
21 Sep 6.8 19:08:34 10° SW 19:12:26 76° NW 19:13:59 36° NNE visible
22 Sep 8.4 19:13:56 10° WSW 19:17:26 32° NW 19:20:22 14° N visible
23 Sep 9.6 19:20:09 10° W 19:22:29 15° NW 19:24:52 10° NNW visible
